period_start,C,m1,H,J0,J1,J2,J3,J4,J5,JA,JB,JC,JD,JJ,JK,JN,#
2017-10-11 00:04:25,-0.01,0.72,0.00,20.28,23.97,27.18,13.94,46.00,1012.24,2045.79,3206.96,2919.03,3318.96,599.73,598.75,50.51,0000 0000 0000 0000 000000
2017-10-11 00:09:26,0.02,0.72,0.00,20.30,23.97,27.18,14.06,45.98,1012.24,2045.65,3206.30,2918.98,3318.42,600.50,599.48,50.56,0000 0000 0000 0000 000000
2017-10-11 00:14:28,-0.02,0.72,0.00,20.28,23.99,27.16,13.99,46.09,1012.25,2045.35,3206.01,2918.83,3318.02,599.85,598.83,50.61,0000 0000 0000 0000 000000
2017-10-11 00:19:29,0.01,0.72,0.00,20.30,24.00,27.18,13.96,45.94,1012.25,2045.18,3205.88,2918.24,3317.99,599.64,598.66,50.66,0000 0000 0000 0000 000000
2017-10-11 00:24:30,0.03,0.72,0.00,20.30,24.00,27.19,13.98,45.96,1012.24,2045.24,3205.10,2918.01,3317.86,599.92,598.92,50.71,0000 0000 0000 0000 000000
2017-10-11 00:29:32,0.00,0.72,0.00,20.28,24.01,27.21,13.99,46.06,1012.25,2045.19,3205.00,2918.00,3317.20,599.61,598.59,50.76,0000 0000 0000 0000 000000
2017-10-11 00:34:33,0.00,0.72,0.00,20.32,24.02,27.19,14.02,46.05,1012.26,2045.13,3204.92,2917.96,3317.01,599.89,598.82,50.81,0000 0000 0000 0000 000000
2017-10-11 00:39:34,0.02,0.72,0.00,20.30,24.02,27.22,14.04,45.93,1012.30,2045.11,3204.23,2917.52,3316.99,600.01,598.98,50.86,0000 0000 0000 0000 000000
2017-10-11 00:44:35,0.01,0.72,0.00,20.31,24.02,27.22,14.08,46.06,1012.31,2045.14,3204.00,2917.06,3316.81,599.99,598.83,50.92,0000 0000 0000 0000 000000
2017-10-11 00:49:36,0.01,0.72,0.00,20.32,24.02,27.23,14.01,46.05,1012.28,2045.11,3203.96,2917.00,3316.19,600.11,599.00,50.97,0000 0000 0000 0000 000000
2017-10-11 00:54:37,0.01,0.72,0.00,20.32,24.02,27.20,13.97,46.02,1012.28,2045.03,3203.30,2916.99,3316.00,599.47,598.43,51.02,0000 0000 0000 0000 000000
2017-10-11 00:59:39,0.01,0.72,0.00,20.38,24.04,27.24,14.00,46.14,1012.28,2045.03,3203.00,2916.74,3315.98,600.04,598.83,51.07,0000 0000 0000 0000 000000
2017-10-11 01:04:40,0.03,0.73,0.00,20.34,24.04,27.23,13.98,46.22,1012.30,2045.01,3202.81,2916.10,3315.44,599.53,598.47,51.12,0000 0000 0000 0000 000000
2017-10-11 01:09:41,0.01,0.73,0.00,20.36,24.05,27.24,14.01,46.03,1012.44,2045.02,3202.11,2916.00,3315.05,600.51,599.44,51.17,0000 0000 0000 0000 000000
2017-10-11 01:14:42,-0.00,0.73,0.00,20.40,24.05,27.23,14.04,46.02,1012.56,2045.02,3202.00,2916.00,3315.00,600.24,599.20,51.22,0000 0000 0000 0000 000000
2017-10-11 01:19:43,0.02,0.73,0.00,20.36,24.05,27.22,14.01,46.03,1012.62,2045.01,3201.58,2915.83,3314.86,600.22,599.38,51.27,0000 0000 0000 0000 000000
2017-10-11 01:24:45,0.03,0.73,0.00,20.41,24.05,27.26,14.03,46.01,1012.64,2045.02,3201.03,2915.15,3314.21,600.38,599.34,51.32,0000 0000 0000 0000 000000
2017-10-11 01:29:46,0.00,0.73,0.00,20.41,24.07,27.24,14.01,45.87,1012.65,2045.02,3201.00,2915.02,3314.01,600.25,599.14,51.37,0000 0000 0000 0000 000000
2017-10-11 01:34:47,0.00,0.73,0.00,20.37,24.07,27.24,14.04,45.87,1012.64,2045.01,3200.74,2914.99,3314.00,599.95,598.92,51.42,0000 0000 0000 0000 000000
2017-10-11 01:39:49,0.01,0.73,0.00,20.39,24.07,27.24,13.98,45.84,1012.70,2045.00,3200.05,2914.90,3313.71,599.92,598.93,51.47,0000 0000 0000 0000 000000
2017-10-11 01:44:50,0.03,0.73,0.00,20.40,24.08,27.24,14.03,45.88,1012.69,2045.00,3199.93,2914.17,3313.05,600.18,599.07,51.52,0000 0000 0000 0000 000000
2017-10-11 01:49:52,0.01,0.73,0.00,20.41,24.10,27.27,13.98,45.88,1012.71,2045.00,3199.32,2914.00,3313.00,599.66,598.69,51.57,0000 0000 0000 0000 000000
2017-10-11 01:54:53,0.00,0.73,0.00,20.44,24.10,27.28,14.02,45.98,1012.71,2045.00,3199.00,2913.99,3312.89,599.63,598.53,51.62,0000 0000 0000 0000 000000
2017-10-11 01:59:54,0.02,0.74,0.00,20.44,24.10,27.30,14.07,45.97,1012.70,2045.00,3199.00,2913.82,3312.16,600.30,599.18,51.67,0000 0000 0000 0000 000000
2017-10-11 02:04:56,0.02,0.74,0.00,20.46,24.12,27.29,14.01,45.90,1012.71,2045.00,3198.55,2913.23,3312.00,600.03,598.96,51.72,0000 0000 0000 0000 000000
2017-10-11 02:09:57,0.00,0.74,0.00,20.47,24.12,27.31,13.95,45.89,1012.71,2045.00,3198.02,2913.00,3311.97,599.70,598.66,51.77,0000 0000 0000 0000 000000
2017-10-11 02:14:58,0.00,0.74,0.00,20.45,24.13,27.33,13.99,45.88,1012.71,2045.00,3197.98,2912.99,3311.74,599.85,598.67,51.82,0000 0000 0000 0000 000000
2017-10-11 02:19:59,0.02,0.74,0.00,20.50,24.15,27.34,14.02,45.98,1012.71,2045.00,3197.52,2912.89,3311.10,600.36,599.18,51.87,0000 0000 0000 0000 000000
2017-10-11 02:25:01,0.02,0.74,0.00,20.49,24.15,27.35,14.02,45.84,1012.71,2044.98,3197.04,2912.21,3310.99,599.62,598.53,51.92,0000 0000 0000 0000 000000
2017-10-11 02:30:02,0.00,0.74,0.00,20.49,24.17,27.35,14.03,45.88,1012.71,2044.98,3196.98,2912.01,3310.80,599.61,598.48,51.98,0000 0000 0000 0000 000000
2017-10-11 02:35:04,0.02,0.74,0.00,20.54,24.17,27.33,13.99,45.83,1012.71,2044.95,3196.37,2911.99,3310.08,600.15,598.91,52.03,0000 0000 0000 0000 000000
2017-10-11 02:40:05,-0.00,0.74,0.00,20.52,24.18,27.35,14.02,45.82,1012.71,2044.94,3196.02,2911.95,3310.00,599.79,598.55,52.08,0000 0000 0000 0000 000000
2017-10-11 02:45:07,0.02,0.74,0.00,20.56,24.20,27.38,13.95,45.86,1012.71,2044.93,3195.98,2911.39,3309.96,599.77,598.44,52.13,0000 0000 0000 0000 000000
2017-10-11 02:50:08,0.02,0.74,0.00,20.56,24.20,27.38,13.99,45.85,1012.71,2044.88,3195.16,2911.01,3309.14,600.01,598.71,52.18,0000 0000 0000 0000 000000
2017-10-11 02:55:09,-0.01,0.74,0.00,20.56,24.22,27.38,14.02,45.89,1012.70,2044.77,3194.98,2910.90,3309.00,599.59,598.32,52.23,0000 0000 0000 0000 000000
2017-10-11 03:00:10,0.02,0.74,0.00,20.62,24.22,27.37,13.90,45.80,1012.71,2044.43,3194.35,2910.17,3308.52,599.61,598.20,52.28,0000 0000 0000 0000 000000
2017-10-11 03:05:12,-0.01,0.74,0.00,20.59,24.23,27.39,14.01,45.93,1012.71,2044.14,3194.00,2910.00,3308.01,600.15,598.85,52.33,0000 0000 0000 0000 000000
2017-10-11 03:10:13,0.01,0.74,0.00,20.61,24.25,27.40,14.00,45.86,1012.70,2044.09,3193.47,2909.93,3307.98,599.56,598.21,52.38,0000 0000 0000 0000 000000
2017-10-11 03:15:14,0.03,0.75,0.00,20.64,24.25,27.42,14.01,46.00,1012.65,2044.05,3193.02,2909.25,3307.24,599.85,598.33,52.43,0000 0000 0000 0000 000000
2017-10-11 03:20:15,0.01,0.75,0.00,20.62,24.27,27.44,13.99,45.94,1012.72,2044.03,3192.69,2909.00,3307.00,600.01,598.51,52.48,0000 0000 0000 0000 000000
2017-10-11 03:25:17,0.01,0.75,0.00,20.65,24.27,27.46,14.01,45.78,1012.71,2044.01,3192.05,2908.97,3306.89,600.43,599.00,52.53,0000 0000 0000 0000 000000
2017-10-11 03:30:18,0.03,0.75,0.00,20.67,24.29,27.47,13.97,45.95,1012.71,2044.03,3191.99,2908.56,3306.15,599.64,598.10,52.58,0000 0000 0000 0000 000000
2017-10-11 03:35:19,0.02,0.75,0.00,20.66,24.30,27.47,14.10,46.23,1012.71,2044.01,3191.28,2908.03,3306.00,600.44,598.78,52.63,0000 0000 0000 0000 000000
2017-10-11 03:40:20,0.01,0.75,0.00,20.68,24.30,27.49,14.00,45.97,1012.71,2044.00,3190.99,2907.98,3305.60,600.25,598.58,52.68,0000 0000 0000 0000 000000
2017-10-11 03:45:21,0.03,0.75,0.00,20.68,24.32,27.48,13.96,46.00,1012.71,2044.00,3190.55,2907.77,3305.06,599.58,597.97,52.73,0000 0000 0000 0000 000000
2017-10-11 03:50:23,0.02,0.75,0.00,20.70,24.32,27.50,13.94,45.89,1012.71,2044.00,3190.02,2907.11,3305.00,599.50,597.99,52.78,0000 0000 0000 0000 000000
2017-10-11 03:55:24,0.01,0.75,0.00,20.72,24.33,27.51,13.98,45.94,1012.71,2044.00,3189.89,2907.00,3304.64,599.96,598.29,52.83,0000 0000 0000 0000 000000
2017-10-11 04:00:26,0.02,0.76,0.00,20.69,24.35,27.51,14.01,46.04,1012.71,2044.00,3189.17,2906.93,3304.11,599.87,598.23,52.89,0000 0000 0000 0000 000000
2017-10-11 04:05:27,0.02,0.76,0.00,20.73,24.35,27.53,13.98,46.12,1012.71,2043.99,3188.95,2906.24,3303.99,599.84,598.13,52.94,0000 0000 0000 0000 000000
2017-10-11 04:10:28,0.02,0.76,0.00,20.73,24.36,27.53,14.06,45.98,1012.71,2043.99,3188.18,2906.00,3303.50,600.43,598.76,52.99,0000 0000 0000 0000 000000
2017-10-11 04:15:30,0.00,0.76,0.00,20.73,24.37,27.56,14.00,45.93,1012.71,2043.98,3188.00,2905.95,3303.01,600.26,598.48,53.04,0000 0000 0000 0000 000000
2017-10-11 04:20:31,0.04,0.76,0.00,20.77,24.37,27.55,13.94,45.86,1012.73,2043.98,3187.46,2905.27,3302.99,599.70,597.85,53.09,0000 0000 0000 0000 000000
2017-10-11 04:25:32,0.01,0.76,0.00,20.73,24.37,27.56,14.08,46.02,1012.74,2043.96,3187.01,2905.01,3302.51,600.23,598.52,53.14,0000 0000 0000 0000 000000
2017-10-11 04:30:34,0.01,0.76,0.00,20.75,24.39,27.55,13.98,45.94,1012.78,2043.97,3186.79,2904.99,3302.03,600.14,598.64,53.19,0000 0000 0000 0000 000000
2017-10-11 04:35:35,0.01,0.76,0.00,20.75,24.40,27.57,14.08,45.89,1012.87,2043.97,3186.06,2904.86,3301.98,600.45,598.85,53.24,0000 0000 0000 0000 000000
2017-10-11 04:40:36,0.02,0.76,0.00,20.73,24.40,27.57,13.92,45.88,1013.00,2043.98,3185.99,2904.29,3301.70,599.28,597.89,53.29,0000 0000 0000 0000 000000
2017-10-11 04:45:38,0.01,0.76,0.00,20.75,24.41,27.58,14.05,46.04,1013.15,2043.95,3185.67,2904.01,3301.08,600.51,599.02,53.34,0000 0000 0000 0000 000000
2017-10-11 04:50:39,-0.01,0.76,0.00,20.74,24.42,27.59,14.03,45.89,1013.19,2043.76,3185.03,2903.99,3301.00,600.24,598.82,53.39,0000 0000 0000 0000 000000
2017-10-11 04:55:40,0.00,0.76,0.00,20.75,24.42,27.58,13.97,45.86,1013.19,2043.56,3184.93,2903.69,3300.75,599.83,598.47,53.44,0000 0000 0000 0000 000000
2017-10-11 05:00:41,0.03,0.77,0.00,20.81,24.42,27.60,14.03,45.99,1013.20,2043.51,3184.22,2903.10,3300.11,600.13,598.56,53.49,0000 0000 0000 0000 000000
2017-10-11 05:05:42,0.02,0.77,0.00,20.79,24.44,27.63,13.96,45.65,1013.20,2043.65,3184.00,2903.01,3300.00,599.98,598.42,53.54,0000 0000 0000 0000 000000
2017-10-11 05:10:44,-0.02,0.77,0.00,20.78,24.45,27.62,14.04,45.74,1013.20,2043.50,3183.82,2902.98,3299.94,600.20,598.69,53.59,0000 0000 0000 0000 000000
2017-10-11 05:15:45,0.03,0.77,0.00,20.83,24.45,27.62,14.03,45.77,1013.20,2043.21,3183.10,2902.49,3299.22,600.58,598.94,53.64,0000 0000 0000 0000 000000
2017-10-11 05:20:46,0.01,0.77,0.00,20.80,24.46,27.63,13.92,45.81,1013.20,2043.30,3183.00,2902.05,3299.02,599.24,597.79,53.69,0000 0000 0000 0000 000000
2017-10-11 05:25:48,-0.00,0.77,0.00,20.80,24.47,27.65,14.02,45.83,1013.21,2043.13,3182.46,2902.00,3298.98,599.95,598.46,53.74,0000 0000 0000 0000 000000
2017-10-11 05:30:49,0.02,0.77,0.00,20.82,24.47,27.68,13.96,46.00,1013.20,2043.06,3182.01,2901.84,3298.35,599.41,597.91,53.79,0000 0000 0000 0000 000000
2017-10-11 05:35:50,0.02,0.77,0.00,20.80,24.49,27.67,13.94,45.92,1013.21,2043.07,3181.92,2901.21,3298.01,599.68,598.19,53.84,0000 0000 0000 0000 000000
2017-10-11 05:40:52,0.01,0.77,0.00,20.82,24.50,27.68,13.98,45.88,1013.22,2043.03,3181.16,2901.01,3297.98,600.02,598.30,53.90,0000 0000 0000 0000 000000
2017-10-11 05:45:53,0.01,0.77,0.00,20.83,24.50,27.66,14.01,45.92,1013.21,2043.02,3180.97,2900.97,3297.43,600.18,598.61,53.95,0000 0000 0000 0000 000000
2017-10-11 05:50:55,0.03,0.77,0.00,20.80,24.50,27.64,14.02,45.89,1013.21,2043.01,3180.35,2900.59,3297.00,600.10,598.58,54.00,0000 0000 0000 0000 000000
2017-10-11 05:55:56,0.01,0.77,0.00,20.82,24.51,27.68,13.98,45.98,1013.21,2043.01,3180.00,2900.07,3297.00,599.60,598.02,54.05,0000 0000 0000 0000 000000
2017-10-11 06:00:57,0.01,0.77,0.00,20.81,24.52,27.70,13.99,45.87,1013.23,2043.00,3179.81,2900.00,3296.56,599.78,598.22,54.10,0000 0000 0000 0000 000000
2017-10-11 06:05:59,0.01,0.78,0.00,20.79,24.52,27.70,14.03,46.07,1013.26,2043.01,3179.07,2899.90,3296.02,599.93,598.56,54.15,0000 0000 0000 0000 000000
2017-10-11 06:11:00,0.02,0.78,0.00,20.83,24.52,27.70,13.99,46.05,1013.36,2043.00,3178.96,2899.26,3296.00,599.59,598.11,54.20,0000 0000 0000 0000 000000
2017-10-11 06:16:01,0.01,0.78,0.00,20.80,24.52,27.71,13.95,45.96,1013.58,2043.00,3178.29,2899.02,3295.91,599.60,598.52,54.25,0000 0000 0000 0000 000000
2017-10-11 06:21:03,0.01,0.78,0.00,20.81,24.52,27.70,14.03,45.95,1013.67,2043.00,3178.02,2899.00,3295.44,600.19,598.91,54.30,0000 0000 0000 0000 000000
2017-10-11 06:26:04,0.00,0.78,0.00,20.82,24.52,27.68,14.04,45.88,1013.69,2043.00,3177.95,2898.98,3295.02,600.30,599.06,54.35,0000 0000 0000 0000 000000
2017-10-11 06:31:05,0.03,0.78,0.00,20.80,24.52,27.71,13.98,45.90,1013.69,2043.00,3177.26,2898.57,3294.96,599.82,598.59,54.40,0000 0000 0000 0000 000000
2017-10-11 06:36:06,0.02,0.78,0.00,20.81,24.53,27.72,14.03,46.08,1013.69,2043.00,3177.00,2898.04,3294.51,600.06,598.83,54.45,0000 0000 0000 0000 000000
2017-10-11 06:41:07,0.01,0.78,0.00,20.81,24.54,27.74,14.06,46.02,1013.69,2043.00,3176.60,2898.00,3294.01,599.97,598.80,54.50,0000 0000 0000 0000 000000
2017-10-11 06:46:09,0.01,0.78,0.00,20.79,24.54,27.73,14.01,46.17,1013.69,2043.00,3176.02,2897.89,3293.96,599.96,598.69,54.55,0000 0000 0000 0000 000000
2017-10-11 06:51:10,0.03,0.78,0.00,20.84,24.54,27.71,13.97,46.03,1013.69,2043.00,3175.88,2897.23,3293.49,599.80,598.59,54.60,0000 0000 0000 0000 000000
2017-10-11 06:56:11,0.01,0.79,0.00,20.81,24.55,27.72,13.99,46.00,1013.70,2043.00,3175.16,2897.01,3293.02,599.81,598.70,54.65,0000 0000 0000 0000 000000
2017-10-11 07:01:12,0.00,0.79,0.00,20.79,24.55,27.73,13.97,45.92,1013.71,2043.00,3174.98,2896.99,3292.98,600.08,598.86,54.70,0000 0000 0000 0000 000000
2017-10-11 07:06:14,0.03,0.79,0.00,20.82,24.55,27.72,14.01,45.82,1013.75,2043.00,3174.27,2896.75,3292.64,599.82,598.57,54.75,0000 0000 0000 0000 000000
2017-10-11 07:11:15,0.02,0.79,0.00,20.80,24.55,27.73,14.04,45.89,1013.80,2043.00,3173.99,2896.06,3292.04,600.40,599.19,54.80,0000 0000 0000 0000 000000
2017-10-11 07:16:16,0.01,0.79,0.00,20.78,24.55,27.73,14.09,45.97,1013.87,2043.00,3173.55,2896.00,3291.99,600.57,599.55,54.86,0000 0000 0000 0000 000000
2017-10-11 07:21:17,0.01,0.79,0.00,20.81,24.55,27.74,14.01,46.02,1014.05,2043.00,3173.02,2895.93,3291.65,599.59,598.44,54.91,0000 0000 0000 0000 000000
2017-10-11 07:26:19,0.04,0.79,0.00,20.77,24.55,27.74,13.99,46.03,1014.14,2043.00,3172.56,2895.22,3291.03,599.98,599.01,54.96,0000 0000 0000 0000 000000
2017-10-11 07:31:20,0.00,0.79,0.00,20.79,24.55,27.74,14.02,45.92,1014.15,2043.00,3172.02,2895.00,3290.97,600.05,599.18,55.01,0000 0000 0000 0000 000000
2017-10-11 07:36:21,0.01,0.79,0.00,20.82,24.55,27.74,14.08,46.08,1014.15,2043.00,3171.81,2894.97,3290.40,599.65,598.72,55.06,0000 0000 0000 0000 000000
2017-10-11 07:41:23,0.03,0.80,0.00,20.78,24.55,27.74,13.94,45.91,1014.17,2043.00,3171.07,2894.30,3290.01,599.78,598.88,55.11,0000 0000 0000 0000 000000
2017-10-11 07:46:24,0.01,0.80,0.00,20.80,24.55,27.73,14.04,45.81,1014.17,2043.00,3170.83,2894.01,3289.90,599.99,599.04,55.16,0000 0000 0000 0000 000000
2017-10-11 07:51:25,0.02,0.80,0.00,20.79,24.55,27.74,13.97,45.73,1014.17,2043.00,3170.08,2894.00,3289.20,599.99,599.18,55.21,0000 0000 0000 0000 000000
2017-10-11 07:56:27,0.02,0.80,0.00,20.77,24.55,27.71,13.99,45.81,1014.17,2043.00,3169.91,2893.61,3289.00,600.29,599.37,55.26,0000 0000 0000 0000 000000
2017-10-11 08:01:28,0.02,0.80,0.00,20.80,24.55,27.72,14.07,45.79,1014.17,2043.00,3169.17,2893.04,3288.87,600.56,599.51,55.31,0000 0000 0000 0000 000000
2017-10-11 08:06:29,0.01,0.80,0.00,20.78,24.55,27.75,13.99,45.89,1014.17,2043.00,3168.98,2892.99,3288.18,599.73,598.87,55.36,0000 0000 0000 0000 000000
2017-10-11 08:11:30,0.02,0.80,0.00,20.77,24.55,27.74,13.96,45.78,1014.17,2042.99,3168.33,2892.68,3287.99,599.30,598.52,55.41,0000 0000 0000 0000 000000
2017-10-11 08:16:32,0.02,0.80,0.00,20.81,24.56,27.73,14.09,45.85,1014.18,2042.99,3168.00,2892.05,3287.86,600.11,599.09,55.46,0000 0000 0000 0000 000000
2017-10-11 08:21:33,0.02,0.80,0.00,20.78,24.57,27.73,13.99,45.96,1014.18,2042.99,3167.57,2892.00,3287.16,599.82,598.91,55.51,0000 0000 0000 0000 000000
2017-10-11 08:26:35,0.00,0.81,0.00,20.75,24.57,27.75,14.04,45.98,1014.19,2042.99,3167.01,2891.90,3286.98,599.89,599.08,55.56,0000 0000 0000 0000 000000
2017-10-11 08:31:36,0.05,0.81,0.00,20.81,24.57,27.73,13.95,45.77,1014.19,2042.99,3166.48,2891.16,3286.44,600.24,599.33,55.61,0000 0000 0000 0000 000000
2017-10-11 08:36:37,0.00,0.81,0.00,20.76,24.57,27.74,14.02,45.87,1014.19,2042.98,3166.00,2890.99,3286.02,600.05,599.14,55.66,0000 0000 0000 0000 000000
2017-10-11 08:41:39,0.03,0.81,0.00,20.78,24.57,27.75,14.04,45.74,1014.18,2042.99,3165.43,2890.79,3285.86,599.94,599.05,55.71,0000 0000 0000 0000 000000
2017-10-11 08:46:40,0.03,0.81,0.00,20.78,24.57,27.72,14.02,45.98,1014.19,2042.99,3165.01,2890.17,3285.18,599.91,599.00,55.76,0000 0000 0000 0000 000000
2017-10-11 08:51:41,0.01,0.81,0.00,20.76,24.57,27.75,13.99,45.96,1014.19,2042.98,3164.38,2890.00,3284.98,599.89,599.04,55.81,0000 0000 0000 0000 000000
2017-10-11 08:56:42,0.01,0.81,0.00,20.78,24.57,27.72,14.06,45.89,1014.21,2042.99,3164.00,2889.87,3284.67,600.31,599.21,55.87,0000 0000 0000 0000 000000
2017-10-11 09:01:44,0.04,0.81,0.00,20.77,24.57,27.70,13.99,45.88,1014.27,2042.99,3163.43,2889.13,3284.04,600.06,599.22,55.92,0000 0000 0000 0000 000000
2017-10-11 09:06:45,0.00,0.82,0.00,20.74,24.57,27.71,14.02,45.87,1014.37,2042.98,3162.99,2889.00,3283.95,599.65,598.83,55.97,0000 0000 0000 0000 000000
2017-10-11 09:11:46,0.04,0.82,0.00,20.78,24.57,27.72,14.00,45.92,1014.40,2042.96,3162.28,2888.68,3283.20,599.60,598.74,56.02,0000 0000 0000 0000 000000
2017-10-11 09:16:48,0.01,0.82,0.00,20.77,24.57,27.73,14.03,45.88,1014.55,2042.98,3161.99,2888.06,3283.00,600.06,599.50,56.07,0000 0000 0000 0000 000000
2017-10-11 09:21:49,0.02,0.82,0.00,20.75,24.57,27.73,14.09,45.92,1014.64,2042.98,3161.29,2888.00,3282.68,600.36,599.81,56.12,0000 0000 0000 0000 000000
2017-10-11 09:26:50,0.01,0.82,0.00,20.77,24.57,27.73,14.01,45.84,1014.66,2042.98,3160.99,2887.89,3282.04,600.24,599.66,56.17,0000 0000 0000 0000 000000
2017-10-11 09:31:51,0.03,0.82,0.00,20.76,24.57,27.72,14.06,45.94,1014.66,2042.99,3160.45,2887.22,3281.99,599.99,599.38,56.22,0000 0000 0000 0000 000000
2017-10-11 09:36:52,0.01,0.82,0.00,20.73,24.57,27.72,13.98,45.88,1014.66,2042.99,3159.99,2886.99,3281.47,599.78,599.34,56.27,0000 0000 0000 0000 000000
2017-10-11 09:41:54,0.02,0.82,0.00,20.76,24.57,27.73,14.00,45.95,1014.66,2042.98,3159.28,2886.75,3281.01,599.57,599.08,56.32,0000 0000 0000 0000 000000
2017-10-11 09:46:55,0.02,0.83,0.00,20.75,24.56,27.72,13.95,45.84,1014.67,2042.99,3158.88,2886.05,3280.78,599.71,599.22,56.37,0000 0000 0000 0000 000000
2017-10-11 09:51:56,0.02,0.83,0.00,20.76,24.56,27.73,14.06,45.85,1014.67,2042.99,3158.12,2885.99,3280.08,599.91,599.36,56.42,0000 0000 0000 0000 000000
2017-10-11 09:56:57,0.02,0.83,0.00,20.77,24.55,27.74,14.02,45.79,1014.68,2042.97,3157.76,2885.59,3279.98,599.47,598.95,56.47,0000 0000 0000 0000 000000
2017-10-11 10:01:59,0.03,0.83,0.00,20.75,24.55,27.72,13.99,45.81,1014.70,2042.98,3157.04,2885.02,3279.31,599.89,599.32,56.52,0000 0000 0000 0000 000000
2017-10-11 10:07:00,0.01,0.83,0.00,20.76,24.55,27.72,14.01,45.88,1014.72,2042.99,3156.61,2884.98,3279.00,599.19,598.58,56.57,0000 0000 0000 0000 000000
2017-10-11 10:12:01,0.03,0.83,0.00,20.76,24.55,27.70,14.07,45.87,1014.86,2042.99,3156.02,2884.58,3278.77,600.13,599.61,56.62,0000 0000 0000 0000 000000
2017-10-11 10:17:03,0.03,0.83,0.00,20.75,24.55,27.71,14.00,45.89,1015.02,2042.99,3155.54,2884.02,3278.05,599.91,599.59,56.67,0000 0000 0000 0000 000000
2017-10-11 10:22:04,0.00,0.83,0.00,20.77,24.55,27.73,14.06,45.91,1015.09,2042.99,3155.01,2883.98,3277.98,600.16,599.81,56.72,0000 0000 0000 0000 000000
2017-10-11 10:27:05,0.04,0.84,0.00,20.76,24.55,27.72,14.01,45.83,1015.12,2042.99,3154.60,2883.58,3277.43,599.95,599.70,56.77,0000 0000 0000 0000 000000
2017-10-11 10:32:07,0.01,0.84,0.00,20.74,24.55,27.74,14.01,45.91,1015.15,2042.99,3154.00,2883.01,3277.01,599.70,599.49,56.83,0000 0000 0000 0000 000000
2017-10-11 10:37:08,0.03,0.84,0.00,20.77,24.55,27.71,14.04,45.90,1015.14,2042.99,3153.29,2882.94,3276.62,599.89,599.61,56.88,0000 0000 0000 0000 000000
2017-10-11 10:42:10,0.02,0.84,0.00,20.75,24.55,27.71,14.07,45.88,1015.15,2042.99,3152.98,2882.33,3276.04,600.12,599.89,56.93,0000 0000 0000 0000 000000
2017-10-11 10:47:11,0.01,0.84,0.00,20.73,24.55,27.72,14.01,46.00,1015.15,2042.99,3152.30,2882.00,3275.96,600.23,599.94,56.98,0000 0000 0000 0000 000000
2017-10-11 10:52:12,0.03,0.84,0.00,20.79,24.55,27.72,14.00,45.98,1015.15,2042.99,3151.68,2881.77,3275.15,599.80,599.43,57.03,0000 0000 0000 0000 000000
2017-10-11 10:57:13,0.02,0.84,0.00,20.76,24.55,27.72,14.00,46.00,1015.15,2042.99,3150.98,2881.06,3274.96,600.15,599.87,57.08,0000 0000 0000 0000 000000
2017-10-11 11:02:14,0.03,0.85,0.00,20.74,24.55,27.74,14.04,45.82,1015.16,2042.99,3150.19,2880.99,3274.22,600.06,599.85,57.13,0000 0000 0000 0000 000000
2017-10-11 11:07:16,0.02,0.85,0.00,20.77,24.55,27.71,14.08,45.98,1015.17,2042.99,3149.90,2880.45,3274.00,599.93,599.59,57.18,0000 0000 0000 0000 000000
2017-10-11 11:12:17,0.03,0.85,0.00,20.74,24.55,27.72,14.07,46.00,1015.18,2042.99,3149.09,2880.01,3273.50,599.62,599.45,57.23,0000 0000 0000 0000 000000
2017-10-11 11:17:19,0.03,0.85,0.00,20.77,24.55,27.73,14.03,45.85,1015.20,2042.99,3148.50,2879.74,3273.00,599.97,599.66,57.28,0000 0000 0000 0000 000000
2017-10-11 11:22:20,0.04,0.85,0.00,20.78,24.55,27.71,14.02,45.90,1015.25,2042.99,3147.81,2879.05,3272.41,600.17,599.84,57.33,0000 0000 0000 0000 000000
2017-10-11 11:27:21,0.01,0.85,0.00,20.74,24.55,27.74,14.10,46.02,1015.41,2042.99,3147.05,2878.98,3271.99,600.13,600.03,57.38,0000 0000 0000 0000 000000
2017-10-11 11:32:22,0.05,0.86,0.00,20.76,24.55,27.73,14.05,45.91,1015.48,2042.99,3146.31,2878.25,3271.29,600.16,600.09,57.43,0000 0000 0000 0000 000000
2017-10-11 11:37:24,0.00,0.86,0.00,20.76,24.55,27.73,13.97,45.86,1015.36,2042.99,3145.91,2878.00,3271.00,599.76,599.68,57.48,0000 0000 0000 0000 000000
2017-10-11 11:42:25,0.04,0.86,0.00,20.73,24.55,27.70,13.99,45.73,1015.46,2042.99,3145.09,2877.67,3270.41,600.17,600.13,57.53,0000 0000 0000 0000 000000
2017-10-11 11:47:27,0.03,0.86,0.00,20.74,24.55,27.71,14.04,45.88,1015.41,2042.99,3144.51,2877.04,3269.99,599.67,599.55,57.58,0000 0000 0000 0000 000000
2017-10-11 11:52:28,0.01,0.86,0.00,20.73,24.55,27.67,14.10,45.83,1015.43,2042.99,3143.99,2876.98,3269.52,599.98,599.91,57.63,0000 0000 0000 0000 000000
2017-10-11 11:57:29,0.04,0.86,0.00,20.72,24.55,27.71,13.92,45.83,1015.50,2042.99,3143.40,2876.37,3269.01,599.73,599.71,57.69,0000 0000 0000 0000 000000
2017-10-11 12:02:30,0.00,0.86,0.00,20.74,24.55,27.72,14.00,45.90,1015.62,2042.99,3143.01,2876.02,3268.97,599.80,599.90,57.74,0000 0000 0000 0000 000000
2017-10-11 12:07:31,0.02,0.86,0.00,20.71,24.55,27.72,14.06,45.90,1015.63,2042.99,3142.65,2875.99,3268.32,599.92,600.06,57.79,0000 0000 0000 0000 000000
2017-10-11 12:12:32,0.01,0.87,0.00,20.72,24.55,27.69,13.99,45.89,1015.64,2042.99,3142.03,2875.89,3268.01,600.04,600.20,57.84,0000 0000 0000 0000 000000
2017-10-11 12:17:33,0.02,0.87,0.00,20.77,24.55,27.68,14.07,46.07,1015.64,2042.99,3141.96,2875.18,3267.93,599.88,599.86,57.89,0000 0000 0000 0000 000000
2017-10-11 12:22:35,0.03,0.87,0.00,20.74,24.55,27.68,13.98,46.22,1015.64,2042.99,3141.30,2875.00,3267.16,599.94,600.04,57.94,0000 0000 0000 0000 000000
2017-10-11 12:27:35,0.00,0.87,0.00,20.74,24.55,27.69,14.08,46.14,1015.64,2042.99,3141.00,2874.97,3266.99,600.06,600.08,57.99,0000 0000 0000 0000 000000
2017-10-11 12:32:37,0.04,0.87,0.00,20.71,24.55,27.69,14.04,46.14,1015.65,2042.99,3140.71,2874.34,3266.60,600.15,600.42,58.04,0000 0000 0000 0000 000000
2017-10-11 12:37:38,0.01,0.87,0.00,20.70,24.54,27.69,14.08,46.08,1015.67,2042.99,3140.03,2874.02,3266.02,600.22,600.39,58.09,0000 0000 0000 0000 000000
2017-10-11 12:42:39,0.03,0.87,0.00,20.72,24.53,27.66,14.06,46.19,1015.74,2042.99,3139.53,2873.81,3265.58,600.08,600.19,58.14,0000 0000 0000 0000 000000
2017-10-11 12:47:40,0.02,0.88,0.00,20.69,24.52,27.67,14.09,46.08,1015.94,2042.99,3139.01,2873.08,3265.01,600.18,600.49,58.19,0000 0000 0000 0000 000000
2017-10-11 12:52:41,0.02,0.88,0.00,20.67,24.52,27.64,14.03,45.86,1016.10,2042.99,3138.36,2872.98,3264.65,599.72,600.31,58.24,0000 0000 0000 0000 000000
2017-10-11 12:57:43,0.02,0.88,0.00,20.69,24.52,27.66,14.07,46.02,1016.11,2042.99,3137.91,2872.51,3264.03,600.37,600.67,58.29,0000 0000 0000 0000 000000